Back to catalog

SL-16 DEB

LostLEO
NORAD 42236·DEBRIS·🇷🇺 Russia

Launched Mar 26, 1993 from Baikonur Cosmodrome

Loading…

Next Passes (next 24 hours)

TLE

StaleSource: Space-Track

Epoch: Dec 29, 2018, 20:38 UTC

1 42236U 93016CQ  18363.86015821  .00000969  00000-0  49758-3 0  9998
2 42236  70.9848  84.0009 0138739 104.4017 257.2549 14.12937011732638

Track SL-16 DEB in real time with AllMySat

Download on the App Store